Wetterdaten: Freitag, 24.07.2015
Datum Zeit Auen-Temp. Temp gefhlt Luftfeuchte Luftdruck Regen Wind Richtung Richtung Taupunkt Windben
24.07.2015 00:00 17,6 C 17,6 C 77 % 1011,4 hPa 0,0 mm 1,8 km/h (1 Bft) S-SO 157 13,5 C 0,0 km/h (0 Bft)
24.07.2015 00:05 17,6 C 17,6 C 77 % 1011,4 hPa 0,0 mm 1,0 km/h (0 Bft) SO 135 13,5 C 0,0 km/h (0 Bft)
24.07.2015 00:10 17,5 C 17,6 C 77 % 1011,4 hPa 0,0 mm 1,0 km/h (0 Bft) S-SO 157 13,4 C 0,0 km/h (0 Bft)
24.07.2015 00:15 17,5 C 17,5 C 77 % 1011,4 hPa 0,0 mm 0,5 km/h (0 Bft) SO 135 13,4 C 0,0 km/h (0 Bft)
24.07.2015 00:20 17,4 C 17,4 C 78 % 1011,4 hPa 0,0 mm 0,0 km/h (0 Bft) SO 135 13,5 C 0,0 km/h (0 Bft)
24.07.2015 00:25 17,4 C 17,4 C 78 % 1011,4 hPa 0,0 mm 0,0 km/h (0 Bft) SO 135 13,5 C 0,0 km/h (0 Bft)
24.07.2015 00:30 17,4 C 17,4 C 78 % 1011,4 hPa 0,0 mm 0,0 km/h (0 Bft) SO 135 13,5 C 0,0 km/h (0 Bft)
24.07.2015 00:35 17,3 C 17,3 C 78 % 1011,4 hPa 0,0 mm 0,0 km/h (0 Bft) SO 135 13,4 C 0,0 km/h (0 Bft)
24.07.2015 00:40 17,3 C 17,3 C 78 % 1011,4 hPa 0,0 mm 0,0 km/h (0 Bft) SO 135 13,4 C 0,0 km/h (0 Bft)
24.07.2015 00:45 17,3 C 17,3 C 78 % 1011,4 hPa 0,0 mm 0,0 km/h (0 Bft) SO 135 13,4 C 0,0 km/h (0 Bft)
24.07.2015 00:50 17,3 C 17,3 C 78 % 1011,4 hPa 0,0 mm 0,0 km/h (0 Bft) SO 135 13,4 C 0,0 km/h (0 Bft)
24.07.2015 00:55 17,3 C 17,3 C 78 % 1011,4 hPa 0,0 mm 0,0 km/h (0 Bft) SO 135 13,4 C 0,0 km/h (0 Bft)
24.07.2015 01:00 17,3 C 17,3 C 78 % 1011,4 hPa 0,0 mm 0,0 km/h (0 Bft) S 180 13,4 C 0,0 km/h (0 Bft)
24.07.2015 01:05 17,3 C 17,3 C 77 % 1011,4 hPa 0,0 mm 0,0 km/h (0 Bft) S 180 13,2 C 0,0 km/h (0 Bft)
24.07.2015 01:10 17,3 C 17,2 C 78 % 1011,0 hPa 0,0 mm 0,0 km/h (0 Bft) S 180 13,4 C 0,0 km/h (0 Bft)
24.07.2015 01:15 17,2 C 17,2 C 77 % 1011,0 hPa 0,0 mm 0,0 km/h (0 Bft) S 180 13,1 C 0,0 km/h (0 Bft)
24.07.2015 01:20 16,9 C 16,9 C 77 % 1011,0 hPa 0,0 mm 0,0 km/h (0 Bft) S 180 12,8 C 0,0 km/h (0 Bft)
24.07.2015 01:25 16,8 C 16,7 C 78 % 1011,0 hPa 0,0 mm 0,0 km/h (0 Bft) SO 135 12,9 C 0,0 km/h (0 Bft)
24.07.2015 01:30 16,4 C 16,3 C 78 % 1010,8 hPa 0,0 mm 0,0 km/h (0 Bft) S-SO 157 12,6 C 0,0 km/h (0 Bft)
24.07.2015 01:35 16,2 C 16,1 C 78 % 1010,8 hPa 0,0 mm 0,0 km/h (0 Bft) SO 135 12,4 C 0,0 km/h (0 Bft)
24.07.2015 01:40 16,0 C 15,9 C 78 % 1010,8 hPa 0,0 mm 0,0 km/h (0 Bft) SO 135 12,2 C 0,0 km/h (0 Bft)
24.07.2015 01:45 15,9 C 15,8 C 79 % 1010,8 hPa 0,0 mm 0,0 km/h (0 Bft) SO 135 12,3 C 0,0 km/h (0 Bft)
24.07.2015 01:50 15,7 C 15,5 C 79 % 1010,6 hPa 0,0 mm 0,0 km/h (0 Bft) SO 135 12,1 C 0,0 km/h (0 Bft)
24.07.2015 01:55 15,9 C 15,7 C 80 % 1010,6 hPa 0,0 mm 0,0 km/h (0 Bft) SO 135 12,5 C 0,0 km/h (0 Bft)
24.07.2015 02:00 15,6 C 15,4 C 80 % 1010,6 hPa 0,0 mm 0,0 km/h (0 Bft) SO 135 12,2 C 0,0 km/h (0 Bft)
24.07.2015 02:05 15,5 C 15,3 C 81 % 1010,6 hPa 0,0 mm 0,0 km/h (0 Bft) SO 135 12,3 C 0,0 km/h (0 Bft)
24.07.2015 02:10 15,4 C 15,2 C 81 % 1010,4 hPa 0,0 mm 0,0 km/h (0 Bft) SO 135 12,2 C 0,0 km/h (0 Bft)
24.07.2015 02:15 15,5 C 15,3 C 82 % 1010,4 hPa 0,0 mm 0,0 km/h (0 Bft) SO 135 12,4 C 0,0 km/h (0 Bft)
24.07.2015 02:20 15,5 C 15,3 C 82 % 1010,4 hPa 0,0 mm 0,0 km/h (0 Bft) SO 135 12,4 C 0,0 km/h (0 Bft)
24.07.2015 02:25 15,5 C 15,3 C 82 % 1010,4 hPa 0,0 mm 0,0 km/h (0 Bft) SO 135 12,4 C 0,0 km/h (0 Bft)
24.07.2015 02:30 15,6 C 15,4 C 83 % 1010,5 hPa 0,0 mm 0,0 km/h (0 Bft) SO 135 12,7 C 0,0 km/h (0 Bft)
24.07.2015 02:35 15,8 C 15,5 C 84 % 1010,5 hPa 0,0 mm 0,0 km/h (0 Bft) SO 135 13,1 C 0,0 km/h (0 Bft)
24.07.2015 02:40 15,6 C 15,4 C 84 % 1010,5 hPa 0,0 mm 0,0 km/h (0 Bft) S-SO 157 12,9 C 0,0 km/h (0 Bft)
24.07.2015 02:45 15,6 C 15,4 C 84 % 1010,5 hPa 0,0 mm 0,0 km/h (0 Bft) S 180 12,9 C 0,0 km/h (0 Bft)
24.07.2015 02:50 15,4 C 15,3 C 84 % 1010,2 hPa 0,0 mm 0,0 km/h (0 Bft) SW 225 12,7 C 0,0 km/h (0 Bft)
24.07.2015 02:55 15,5 C 15,3 C 84 % 1010,2 hPa 0,0 mm 0,0 km/h (0 Bft) SO 135 12,8 C 0,0 km/h (0 Bft)
24.07.2015 03:00 15,6 C 15,5 C 82 % 1010,2 hPa 0,0 mm 0,0 km/h (0 Bft) SO 135 12,5 C 0,0 km/h (0 Bft)
24.07.2015 03:05 15,6 C 15,5 C 82 % 1010,2 hPa 0,0 mm 0,0 km/h (0 Bft) O-SO 112 12,5 C 0,0 km/h (0 Bft)
24.07.2015 03:10 15,7 C 15,5 C 85 % 1010,2 hPa 0,0 mm 0,3 km/h (0 Bft) O-SO 112 13,2 C 2,8 km/h (1 Bft)
24.07.2015 03:15 15,6 C 15,5 C 83 % 1010,2 hPa 0,0 mm 0,3 km/h (0 Bft) O 90 12,7 C 0,0 km/h (0 Bft)
24.07.2015 03:20 15,2 C 15,1 C 84 % 1010,2 hPa 0,0 mm 0,0 km/h (0 Bft) O 90 12,5 C 0,0 km/h (0 Bft)
24.07.2015 03:25 15,1 C 14,9 C 84 % 1010,2 hPa 0,0 mm 0,0 km/h (0 Bft) SO 135 12,4 C 0,0 km/h (0 Bft)
24.07.2015 03:30 15,2 C 15,0 C 85 % 1009,9 hPa 0,0 mm 0,3 km/h (0 Bft) S 180 12,7 C 0,0 km/h (0 Bft)
24.07.2015 03:35 15,0 C 14,9 C 85 % 1009,9 hPa 0,0 mm 0,3 km/h (0 Bft) S 180 12,5 C 0,0 km/h (0 Bft)
24.07.2015 03:40 14,8 C 14,7 C 85 % 1009,9 hPa 0,0 mm 0,0 km/h (0 Bft) O-SO 112 12,3 C 0,0 km/h (0 Bft)
24.07.2015 03:45 14,8 C 14,6 C 85 % 1009,9 hPa 0,0 mm 0,0 km/h (0 Bft) W-SW 247 12,3 C 3,1 km/h (1 Bft)
24.07.2015 03:50 14,9 C 14,7 C 85 % 1009,8 hPa 0,0 mm 0,0 km/h (0 Bft) O-SO 112 12,4 C 0,0 km/h (0 Bft)
24.07.2015 03:55 14,8 C 14,6 C 85 % 1009,8 hPa 0,0 mm 0,0 km/h (0 Bft) O-SO 112 12,3 C 0,0 km/h (0 Bft)
24.07.2015 04:00 14,6 C 14,5 C 85 % 1009,8 hPa 0,0 mm 0,0 km/h (0 Bft) O-SO 112 12,1 C 0,0 km/h (0 Bft)
24.07.2015 04:05 14,5 C 14,4 C 85 % 1009,8 hPa 0,0 mm 0,0 km/h (0 Bft) O-SO 112 12,0 C 0,0 km/h (0 Bft)
24.07.2015 04:10 14,6 C 14,4 C 85 % 1009,4 hPa 0,0 mm 0,0 km/h (0 Bft) O-SO 112 12,1 C 0,0 km/h (0 Bft)
24.07.2015 04:15 14,5 C 14,3 C 86 % 1009,4 hPa 0,0 mm 0,0 km/h (0 Bft) O-SO 112 12,2 C 0,0 km/h (0 Bft)
24.07.2015 04:20 14,4 C 14,2 C 86 % 1009,4 hPa 0,0 mm 0,0 km/h (0 Bft) NO 45 12,1 C 0,0 km/h (0 Bft)
24.07.2015 04:25 14,5 C 14,3 C 86 % 1009,4 hPa 0,0 mm 0,0 km/h (0 Bft) NO 45 12,2 C 0,0 km/h (0 Bft)
24.07.2015 04:30 14,4 C 14,2 C 86 % 1009,2 hPa 0,0 mm 0,0 km/h (0 Bft) NO 45 12,1 C 0,0 km/h (0 Bft)
24.07.2015 04:35 14,4 C 14,2 C 86 % 1009,2 hPa 0,0 mm 0,0 km/h (0 Bft) NO 45 12,1 C 0,0 km/h (0 Bft)
24.07.2015 04:40 14,4 C 14,2 C 86 % 1009,2 hPa 0,0 mm 0,0 km/h (0 Bft) NO 45 12,1 C 0,0 km/h (0 Bft)
24.07.2015 04:45 14,4 C 14,2 C 86 % 1009,2 hPa 0,0 mm 0,0 km/h (0 Bft) NO 45 12,1 C 0,0 km/h (0 Bft)
24.07.2015 04:50 14,3 C 14,2 C 86 % 1009,1 hPa 0,0 mm 0,0 km/h (0 Bft) NO 45 12,0 C 0,0 km/h (0 Bft)
24.07.2015 04:55 14,2 C 14,1 C 86 % 1009,1 hPa 0,0 mm 0,0 km/h (0 Bft) N 360 11,9 C 0,0 km/h (0 Bft)
24.07.2015 05:00 14,2 C 14,1 C 86 % 1009,1 hPa 0,0 mm 0,0 km/h (0 Bft) N-NW 337 11,9 C 0,0 km/h (0 Bft)
24.07.2015 05:05 14,2 C 14,1 C 87 % 1009,1 hPa 0,0 mm 0,0 km/h (0 Bft) N-NO 22 12,1 C 0,0 km/h (0 Bft)
24.07.2015 05:10 14,3 C 14,2 C 87 % 1009,1 hPa 0,0 mm 0,0 km/h (0 Bft) N-NO 22 12,2 C 0,0 km/h (0 Bft)
24.07.2015 05:15 14,3 C 14,2 C 87 % 1009,1 hPa 0,0 mm 0,0 km/h (0 Bft) N-NO 22 12,2 C 0,0 km/h (0 Bft)
24.07.2015 05:20 14,2 C 14,1 C 87 % 1009,1 hPa 0,0 mm 0,0 km/h (0 Bft) N 360 12,1 C 0,0 km/h (0 Bft)
24.07.2015 05:25 14,2 C 14,1 C 87 % 1009,1 hPa 0,0 mm 0,0 km/h (0 Bft) NW 315 12,1 C 0,0 km/h (0 Bft)
24.07.2015 05:30 14,2 C 14,1 C 87 % 1009,1 hPa 0,0 mm 0,0 km/h (0 Bft) NW 315 12,1 C 0,0 km/h (0 Bft)
24.07.2015 05:35 14,2 C 14,1 C 87 % 1009,1 hPa 0,0 mm 0,0 km/h (0 Bft) NW 315 12,1 C 0,0 km/h (0 Bft)
24.07.2015 05:40 14,3 C 14,2 C 87 % 1009,1 hPa 0,0 mm 0,0 km/h (0 Bft) N-NO 22 12,2 C 0,0 km/h (0 Bft)
24.07.2015 05:45 14,2 C 14,1 C 87 % 1009,1 hPa 0,0 mm 0,0 km/h (0 Bft) N-NO 22 12,1 C 0,0 km/h (0 Bft)
24.07.2015 05:50 14,1 C 14,0 C 87 % 1009,1 hPa 0,0 mm 0,0 km/h (0 Bft) N-NO 22 12,0 C 0,0 km/h (0 Bft)
24.07.2015 05:55 14,1 C 14,0 C 87 % 1009,1 hPa 0,0 mm 0,0 km/h (0 Bft) N-NO 22 12,0 C 0,0 km/h (0 Bft)
24.07.2015 06:00 14,1 C 14,0 C 87 % 1009,1 hPa 0,0 mm 0,0 km/h (0 Bft) N-NO 22 12,0 C 0,0 km/h (0 Bft)
24.07.2015 06:05 14,2 C 14,1 C 88 % 1009,1 hPa 0,0 mm 0,0 km/h (0 Bft) N-NO 22 12,2 C 0,0 km/h (0 Bft)
24.07.2015 06:10 14,1 C 14,0 C 88 % 1008,9 hPa 0,0 mm 0,0 km/h (0 Bft) NW 315 12,1 C 0,0 km/h (0 Bft)
24.07.2015 06:15 14,1 C 14,0 C 88 % 1008,9 hPa 0,0 mm 0,0 km/h (0 Bft) NW 315 12,1 C 0,0 km/h (0 Bft)
24.07.2015 06:20 14,2 C 14,1 C 88 % 1008,9 hPa 0,0 mm 0,0 km/h (0 Bft) N 360 12,2 C 0,0 km/h (0 Bft)
24.07.2015 06:25 14,3 C 14,2 C 88 % 1008,9 hPa 0,0 mm 0,0 km/h (0 Bft) N 360 12,3 C 0,0 km/h (0 Bft)
24.07.2015 06:30 14,4 C 14,3 C 88 % 1008,8 hPa 0,0 mm 0,0 km/h (0 Bft) N 360 12,4 C 0,0 km/h (0 Bft)
24.07.2015 06:35 14,4 C 14,3 C 88 % 1008,8 hPa 0,0 mm 0,0 km/h (0 Bft) N-NO 22 12,4 C 0,0 km/h (0 Bft)
24.07.2015 06:40 14,5 C 14,5 C 86 % 1008,8 hPa 0,0 mm 0,0 km/h (0 Bft) N-NW 337 12,2 C 0,0 km/h (0 Bft)
24.07.2015 06:45 14,6 C 14,6 C 88 % 1008,8 hPa 0,0 mm 0,0 km/h (0 Bft) N 360 12,6 C 0,0 km/h (0 Bft)
24.07.2015 06:50 14,7 C 14,9 C 86 % 1008,8 hPa 0,0 mm 0,0 km/h (0 Bft) N-NO 22 12,4 C 0,0 km/h (0 Bft)
24.07.2015 06:55 14,7 C 15,1 C 86 % 1008,8 hPa 0,0 mm 0,0 km/h (0 Bft) N-NO 22 12,4 C 0,0 km/h (0 Bft)
24.07.2015 07:00 14,9 C 15,4 C 86 % 1008,8 hPa 0,0 mm 0,0 km/h (0 Bft) N-NO 22 12,6 C 0,0 km/h (0 Bft)
24.07.2015 07:05 15,1 C 15,8 C 86 % 1008,8 hPa 0,0 mm 0,0 km/h (0 Bft) N 360 12,8 C 0,0 km/h (0 Bft)
24.07.2015 07:10 15,4 C 16,2 C 86 % 1008,7 hPa 0,0 mm 0,0 km/h (0 Bft) NW 315 13,1 C 0,0 km/h (0 Bft)
24.07.2015 07:15 15,7 C 17,0 C 86 % 1008,7 hPa 0,0 mm 0,0 km/h (0 Bft) N-NO 22 13,4 C 0,0 km/h (0 Bft)
24.07.2015 07:20 16,2 C 18,8 C 85 % 1008,7 hPa 0,0 mm 0,0 km/h (0 Bft) N 360 13,7 C 0,0 km/h (0 Bft)
24.07.2015 07:25 16,3 C 19,2 C 85 % 1008,7 hPa 0,0 mm 0,5 km/h (0 Bft) S-SW 202 13,8 C 4,7 km/h (1 Bft)
24.07.2015 07:30 16,5 C 19,1 C 85 % 1008,7 hPa 0,0 mm 1,0 km/h (0 Bft) N-NO 22 14,0 C 5,2 km/h (1 Bft)
24.07.2015 07:35 16,6 C 19,5 C 85 % 1008,7 hPa 0,0 mm 1,0 km/h (0 Bft) N-NO 22 14,1 C 0,0 km/h (0 Bft)
24.07.2015 07:40 17,1 C 19,8 C 84 % 1008,7 hPa 0,0 mm 0,0 km/h (0 Bft) NW 315 14,4 C 0,0 km/h (0 Bft)
24.07.2015 07:45 17,2 C 20,1 C 84 % 1008,7 hPa 0,0 mm 0,3 km/h (0 Bft) W-NW 292 14,5 C 0,0 km/h (0 Bft)
24.07.2015 07:50 17,4 C 20,3 C 84 % 1008,6 hPa 0,0 mm 0,8 km/h (0 Bft) N-NO 22 14,7 C 0,0 km/h (0 Bft)
24.07.2015 07:55 17,5 C 20,6 C 83 % 1008,6 hPa 0,0 mm 0,5 km/h (0 Bft) N-NW 337 14,6 C 0,0 km/h (0 Bft)
24.07.2015 08:00 18,0 C 21,7 C 83 % 1008,6 hPa 0,0 mm 0,0 km/h (0 Bft) NW 315 15,1 C 0,0 km/h (0 Bft)
24.07.2015 08:05 18,2 C 22,5 C 83 % 1008,6 hPa 0,0 mm 0,0 km/h (0 Bft) W-NW 292 15,3 C 0,0 km/h (0 Bft)
24.07.2015 08:10 18,7 C 23,5 C 82 % 1008,6 hPa 0,0 mm 0,0 km/h (0 Bft) NW 315 15,6 C 0,0 km/h (0 Bft)
24.07.2015 08:15 19,0 C 23,6 C 81 % 1008,6 hPa 0,0 mm 0,0 km/h (0 Bft) NW 315 15,7 C 0,0 km/h (0 Bft)
24.07.2015 08:20 19,4 C 24,1 C 80 % 1008,6 hPa 0,0 mm 1,0 km/h (0 Bft) N-NW 337 15,9 C 6,5 km/h (2 Bft)
24.07.2015 08:25 19,4 C 24,0 C 80 % 1008,6 hPa 0,0 mm 2,1 km/h (1 Bft) N-NO 22 15,9 C 5,4 km/h (1 Bft)
24.07.2015 08:30 19,4 C 23,8 C 79 % 1008,9 hPa 0,0 mm 2,8 km/h (1 Bft) NO 45 15,7 C 4,1 km/h (1 Bft)
24.07.2015 08:35 19,5 C 24,0 C 79 % 1008,9 hPa 0,0 mm 3,4 km/h (1 Bft) O-NO 67 15,8 C 5,7 km/h (1 Bft)
24.07.2015 08:40 19,8 C 24,4 C 78 % 1008,9 hPa 0,0 mm 4,4 km/h (1 Bft) N-NO 22 15,8 C 10,4 km/h (2 Bft)
24.07.2015 08:46 20,2 C 26,4 C 77 % 1008,7 hPa 0,0 mm 2,6 km/h (1 Bft) O-NO 67 16,0 C 4,7 km/h (1 Bft)
24.07.2015 08:50 20,2 C 26,4 C 77 % 1008,7 hPa 0,0 mm 2,6 km/h (1 Bft) O-NO 67 16,0 C 4,7 km/h (1 Bft)
24.07.2015 08:55 19,9 C 25,1 C 77 % 1008,7 hPa 0,0 mm 2,1 km/h (1 Bft) O-NO 67 15,7 C 0,0 km/h (0 Bft)
24.07.2015 09:00 20,0 C 25,0 C 76 % 1008,7 hPa 0,0 mm 2,6 km/h (1 Bft) NW 315 15,6 C 3,6 km/h (1 Bft)
24.07.2015 09:05 20,2 C 25,4 C 76 % 1008,7 hPa 0,0 mm 3,1 km/h (1 Bft) O-NO 67 15,8 C 3,9 km/h (1 Bft)
24.07.2015 09:10 20,7 C 26,2 C 76 % 1008,8 hPa 0,0 mm 3,4 km/h (1 Bft) N 360 16,3 C 6,0 km/h (2 Bft)
24.07.2015 09:15 21,0 C 27,0 C 75 % 1008,8 hPa 0,0 mm 3,6 km/h (1 Bft) N-NO 22 16,4 C 6,2 km/h (2 Bft)
24.07.2015 09:20 21,2 C 27,3 C 74 % 1008,8 hPa 0,0 mm 4,4 km/h (1 Bft) NW 315 16,4 C 3,4 km/h (1 Bft)
24.07.2015 09:25 21,7 C 28,0 C 74 % 1008,8 hPa 0,0 mm 2,8 km/h (1 Bft) NO 45 16,9 C 0,0 km/h (0 Bft)
24.07.2015 09:30 21,7 C 28,6 C 72 % 1008,8 hPa 0,0 mm 2,8 km/h (1 Bft) NO 45 16,4 C 11,1 km/h (2 Bft)
24.07.2015 09:35 21,7 C 28,4 C 72 % 1008,8 hPa 0,0 mm 3,9 km/h (1 Bft) NO 45 16,4 C 0,0 km/h (0 Bft)
24.07.2015 09:40 22,0 C 28,9 C 72 % 1008,8 hPa 0,0 mm 3,4 km/h (1 Bft) O-NO 67 16,7 C 5,7 km/h (1 Bft)
24.07.2015 09:45 22,2 C 29,0 C 72 % 1008,8 hPa 0,0 mm 3,1 km/h (1 Bft) O-NO 67 16,9 C 6,0 km/h (2 Bft)
24.07.2015 09:50 22,4 C 29,2 C 71 % 1008,8 hPa 0,0 mm 4,4 km/h (1 Bft) O-NO 67 16,9 C 3,1 km/h (1 Bft)
24.07.2015 09:55 22,8 C 30,0 C 71 % 1008,8 hPa 0,0 mm 3,6 km/h (1 Bft) O-SO 112 17,3 C 4,4 km/h (1 Bft)
24.07.2015 10:00 22,7 C 29,9 C 69 % 1008,8 hPa 0,0 mm 3,1 km/h (1 Bft) O-NO 67 16,7 C 11,4 km/h (2 Bft)
24.07.2015 10:05 23,1 C 30,4 C 68 % 1008,8 hPa 0,0 mm 4,1 km/h (1 Bft) N-NO 22 16,9 C 10,1 km/h (2 Bft)
24.07.2015 10:10 22,9 C 29,6 C 68 % 1008,8 hPa 0,0 mm 6,2 km/h (2 Bft) N-NO 22 16,7 C 14,2 km/h (3 Bft)
24.07.2015 10:15 22,8 C 29,6 C 69 % 1008,8 hPa 0,0 mm 7,3 km/h (2 Bft) NO 45 16,8 C 9,3 km/h (2 Bft)
24.07.2015 10:20 23,0 C 29,6 C 68 % 1008,8 hPa 0,0 mm 5,7 km/h (1 Bft) N-NW 337 16,8 C 6,7 km/h (2 Bft)
24.07.2015 10:25 23,0 C 29,3 C 68 % 1008,8 hPa 0,0 mm 6,0 km/h (2 Bft) O 90 16,8 C 3,4 km/h (1 Bft)
24.07.2015 10:30 23,2 C 29,6 C 67 % 1008,8 hPa 0,0 mm 5,4 km/h (1 Bft) N-NO 22 16,7 C 5,4 km/h (1 Bft)
24.07.2015 10:35 23,2 C 29,7 C 67 % 1008,8 hPa 0,0 mm 4,9 km/h (1 Bft) O-SO 112 16,7 C 4,1 km/h (1 Bft)
24.07.2015 10:40 23,3 C 29,8 C 67 % 1008,8 hPa 0,0 mm 4,9 km/h (1 Bft) NW 315 16,8 C 4,9 km/h (1 Bft)
24.07.2015 10:45 23,3 C 29,5 C 66 % 1008,8 hPa 0,0 mm 6,5 km/h (2 Bft) O-NO 67 16,6 C 3,6 km/h (1 Bft)
24.07.2015 10:50 23,3 C 29,6 C 67 % 1009,1 hPa 0,0 mm 6,5 km/h (2 Bft) N-NW 337 16,8 C 18,9 km/h (3 Bft)
24.07.2015 10:55 23,5 C 29,5 C 68 % 1009,1 hPa 0,0 mm 5,4 km/h (1 Bft) NO 45 17,2 C 13,5 km/h (3 Bft)
24.07.2015 11:00 23,6 C 29,7 C 66 % 1009,1 hPa 0,0 mm 6,2 km/h (2 Bft) NO 45 16,9 C 17,1 km/h (3 Bft)
24.07.2015 11:05 23,6 C 29,6 C 66 % 1009,1 hPa 0,0 mm 6,2 km/h (2 Bft) O-NO 67 16,9 C 2,6 km/h (1 Bft)
24.07.2015 11:10 23,6 C 29,5 C 66 % 1009,2 hPa 0,0 mm 7,0 km/h (2 Bft) NO 45 16,9 C 13,5 km/h (3 Bft)
24.07.2015 11:15 23,7 C 29,3 C 66 % 1009,2 hPa 0,0 mm 5,4 km/h (1 Bft) SO 135 17,0 C 7,3 km/h (2 Bft)
24.07.2015 11:20 23,8 C 29,7 C 66 % 1009,2 hPa 0,0 mm 4,9 km/h (1 Bft) SO 135 17,1 C 5,2 km/h (1 Bft)
24.07.2015 11:25 23,8 C 29,2 C 66 % 1009,2 hPa 0,0 mm 5,7 km/h (1 Bft) O-NO 67 17,1 C 5,7 km/h (1 Bft)
24.07.2015 11:30 23,9 C 30,2 C 66 % 1009,1 hPa 0,0 mm 5,2 km/h (1 Bft) O-SO 112 17,1 C 3,4 km/h (1 Bft)
24.07.2015 11:35 23,9 C 30,0 C 65 % 1009,1 hPa 0,0 mm 5,2 km/h (1 Bft) O 90 16,9 C 7,0 km/h (2 Bft)
24.07.2015 11:40 24,3 C 29,9 C 65 % 1009,1 hPa 0,0 mm 5,7 km/h (1 Bft) O-SO 112 17,3 C 2,8 km/h (1 Bft)
24.07.2015 11:45 24,5 C 30,8 C 65 % 1009,1 hPa 0,0 mm 4,1 km/h (1 Bft) O-SO 112 17,5 C 5,4 km/h (1 Bft)
24.07.2015 11:50 24,5 C 31,5 C 64 % 1009,1 hPa 0,0 mm 3,9 km/h (1 Bft) N-NO 22 17,2 C 6,2 km/h (2 Bft)
24.07.2015 11:55 24,6 C 31,2 C 64 % 1009,1 hPa 0,0 mm 5,7 km/h (1 Bft) N-NO 22 17,3 C 6,7 km/h (2 Bft)
24.07.2015 12:00 24,8 C 31,0 C 64 % 1009,1 hPa 0,0 mm 6,7 km/h (2 Bft) NO 45 17,5 C 16,1 km/h (3 Bft)
24.07.2015 12:05 25,0 C 31,2 C 63 % 1009,1 hPa 0,0 mm 6,2 km/h (2 Bft) O-SO 112 17,5 C 8,0 km/h (2 Bft)
24.07.2015 12:10 25,2 C 31,6 C 62 % 1009,0 hPa 0,0 mm 6,0 km/h (2 Bft) O-NO 67 17,4 C 10,1 km/h (2 Bft)
24.07.2015 12:15 25,0 C 31,4 C 62 % 1009,0 hPa 0,0 mm 5,7 km/h (1 Bft) N-NW 337 17,2 C 10,6 km/h (2 Bft)
24.07.2015 12:20 25,1 C 30,5 C 63 % 1009,0 hPa 0,0 mm 7,8 km/h (2 Bft) N-NO 22 17,5 C 14,0 km/h (3 Bft)
24.07.2015 12:25 25,4 C 30,3 C 63 % 1009,0 hPa 0,0 mm 8,5 km/h (2 Bft) O 90 17,8 C 12,4 km/h (3 Bft)
24.07.2015 12:30 25,3 C 30,5 C 62 % 1008,6 hPa 0,0 mm 7,3 km/h (2 Bft) NO 45 17,5 C 13,7 km/h (3 Bft)
24.07.2015 12:35 25,1 C 30,3 C 62 % 1008,6 hPa 0,0 mm 7,5 km/h (2 Bft) NO 45 17,3 C 10,1 km/h (2 Bft)
24.07.2015 12:40 25,0 C 30,0 C 62 % 1008,6 hPa 0,0 mm 9,3 km/h (2 Bft) NO 45 17,2 C 19,7 km/h (3 Bft)
24.07.2015 12:45 24,8 C 29,9 C 63 % 1008,6 hPa 0,0 mm 8,8 km/h (2 Bft) NO 45 17,3 C 9,6 km/h (2 Bft)
24.07.2015 12:50 24,9 C 29,8 C 63 % 1008,6 hPa 0,0 mm 9,1 km/h (2 Bft) O-NO 67 17,4 C 7,3 km/h (2 Bft)
24.07.2015 12:55 25,2 C 30,0 C 63 % 1008,6 hPa 0,0 mm 8,8 km/h (2 Bft) NW 315 17,6 C 7,0 km/h (2 Bft)
24.07.2015 13:00 25,4 C 30,8 C 62 % 1008,6 hPa 0,0 mm 7,0 km/h (2 Bft) N-NO 22 17,6 C 10,9 km/h (2 Bft)
24.07.2015 13:05 25,3 C 30,7 C 62 % 1008,6 hPa 0,0 mm 8,8 km/h (2 Bft) N-NW 337 17,5 C 11,7 km/h (2 Bft)
24.07.2015 13:10 25,6 C 30,4 C 61 % 1008,2 hPa 0,0 mm 10,4 km/h (2 Bft) NO 45 17,5 C 21,0 km/h (4 Bft)
24.07.2015 13:15 25,6 C 30,2 C 61 % 1008,2 hPa 0,0 mm 10,4 km/h (2 Bft) NO 45 17,5 C 27,4 km/h (4 Bft)
24.07.2015 13:20 25,5 C 30,0 C 61 % 1008,2 hPa 0,0 mm 10,4 km/h (2 Bft) N-NO 22 17,4 C 11,7 km/h (2 Bft)
24.07.2015 13:25 25,5 C 30,1 C 61 % 1008,2 hPa 0,0 mm 9,6 km/h (2 Bft) NO 45 17,4 C 16,3 km/h (3 Bft)
24.07.2015 13:30 25,2 C 29,0 C 62 % 1008,1 hPa 0,0 mm 9,6 km/h (2 Bft) N-NO 22 17,4 C 10,9 km/h (2 Bft)
24.07.2015 13:35 25,1 C 28,3 C 62 % 1008,1 hPa 0,0 mm 9,8 km/h (2 Bft) N-NO 22 17,3 C 4,9 km/h (1 Bft)
24.07.2015 13:40 25,3 C 28,2 C 62 % 1008,1 hPa 0,0 mm 9,1 km/h (2 Bft) NO 45 17,5 C 17,9 km/h (3 Bft)
24.07.2015 13:45 25,3 C 28,2 C 61 % 1008,1 hPa 0,0 mm 9,1 km/h (2 Bft) O-NO 67 17,2 C 14,8 km/h (3 Bft)
24.07.2015 13:50 25,2 C 28,4 C 62 % 1008,0 hPa 0,0 mm 10,4 km/h (2 Bft) NO 45 17,4 C 10,4 km/h (2 Bft)
24.07.2015 13:55 25,5 C 28,8 C 61 % 1008,0 hPa 0,0 mm 10,1 km/h (2 Bft) N 360 17,4 C 18,6 km/h (3 Bft)
24.07.2015 14:00 25,4 C 29,4 C 63 % 1008,0 hPa 0,0 mm 9,6 km/h (2 Bft) N-NO 22 17,8 C 13,5 km/h (3 Bft)
24.07.2015 14:05 25,6 C 29,6 C 63 % 1008,0 hPa 0,0 mm 9,3 km/h (2 Bft) NO 45 18,0 C 14,0 km/h (3 Bft)
24.07.2015 14:10 25,4 C 29,4 C 62 % 1007,6 hPa 0,0 mm 9,3 km/h (2 Bft) O-NO 67 17,6 C 6,0 km/h (2 Bft)
24.07.2015 14:15 25,5 C 29,0 C 63 % 1007,6 hPa 0,0 mm 8,3 km/h (2 Bft) N-NO 22 17,9 C 6,0 km/h (2 Bft)
24.07.2015 14:20 25,7 C 29,2 C 63 % 1007,6 hPa 0,0 mm 8,3 km/h (2 Bft) N-NO 22 18,1 C 9,8 km/h (2 Bft)
24.07.2015 14:25 25,8 C 29,3 C 64 % 1007,6 hPa 0,0 mm 8,5 km/h (2 Bft) N-NO 22 18,5 C 9,1 km/h (2 Bft)
24.07.2015 14:30 25,8 C 29,8 C 63 % 1007,3 hPa 0,0 mm 9,6 km/h (2 Bft) N-NO 22 18,2 C 18,9 km/h (3 Bft)
24.07.2015 14:35 25,9 C 29,7 C 64 % 1007,3 hPa 0,0 mm 10,1 km/h (2 Bft) NO 45 18,6 C 14,5 km/h (3 Bft)
24.07.2015 14:40 25,8 C 29,3 C 63 % 1007,3 hPa 0,0 mm 11,7 km/h (2 Bft) N-NO 22 18,2 C 29,5 km/h (5 Bft)
24.07.2015 14:45 25,8 C 29,0 C 63 % 1007,3 hPa 0,0 mm 11,9 km/h (2 Bft) N-NO 22 18,2 C 10,6 km/h (2 Bft)
24.07.2015 14:47 25,8 C 29,1 C 63 % 1007,2 hPa 0,0 mm 9,1 km/h (2 Bft) O-NO 67 18,2 C 10,9 km/h (2 Bft)
24.07.2015 14:50 25,8 C 29,1 C 63 % 1007,2 hPa 0,0 mm 9,1 km/h (2 Bft) O-NO 67 18,2 C 10,9 km/h (2 Bft)
24.07.2015 14:55 25,8 C 29,1 C 62 % 1007,2 hPa 0,0 mm 8,0 km/h (2 Bft) NO 45 18,0 C 14,0 km/h (3 Bft)
24.07.2015 15:00 26,1 C 29,4 C 60 % 1007,2 hPa 0,0 mm 10,1 km/h (2 Bft) NW 315 17,7 C 11,1 km/h (2 Bft)
24.07.2015 15:05 26,2 C 29,8 C 60 % 1007,2 hPa 0,0 mm 10,1 km/h (2 Bft) NO 45 17,8 C 6,0 km/h (2 Bft)
24.07.2015 15:10 26,2 C 29,8 C 60 % 1007,0 hPa 0,0 mm 10,6 km/h (2 Bft) S-SO 157 17,8 C 11,1 km/h (2 Bft)
24.07.2015 15:15 26,3 C 30,0 C 60 % 1007,0 hPa 0,0 mm 9,3 km/h (2 Bft) NW 315 17,9 C 7,8 km/h (2 Bft)
24.07.2015 15:20 26,6 C 30,3 C 60 % 1007,0 hPa 0,0 mm 8,5 km/h (2 Bft) O-NO 67 18,2 C 9,8 km/h (2 Bft)
24.07.2015 15:25 26,7 C 30,6 C 60 % 1007,0 hPa 0,0 mm 8,3 km/h (2 Bft) NW 315 18,3 C 6,7 km/h (2 Bft)
24.07.2015 15:30 26,7 C 30,8 C 58 % 1006,7 hPa 0,0 mm 10,1 km/h (2 Bft) NO 45 17,7 C 16,1 km/h (3 Bft)
24.07.2015 15:35 26,5 C 30,2 C 57 % 1006,7 hPa 0,0 mm 11,4 km/h (2 Bft) N-NO 22 17,3 C 9,3 km/h (2 Bft)
24.07.2015 15:40 26,7 C 30,4 C 58 % 1006,7 hPa 0,0 mm 10,6 km/h (2 Bft) O-NO 67 17,7 C 4,9 km/h (1 Bft)
24.07.2015 15:45 26,8 C 30,4 C 58 % 1006,7 hPa 0,0 mm 8,3 km/h (2 Bft) O-NO 67 17,8 C 2,6 km/h (1 Bft)
24.07.2015 15:50 26,8 C 30,4 C 58 % 1006,5 hPa 0,0 mm 7,3 km/h (2 Bft) O 90 17,8 C 9,3 km/h (2 Bft)
24.07.2015 15:55 26,7 C 30,4 C 58 % 1006,5 hPa 0,0 mm 6,0 km/h (2 Bft) O 90 17,7 C 6,2 km/h (2 Bft)
24.07.2015 16:00 26,8 C 30,8 C 58 % 1006,5 hPa 0,0 mm 6,5 km/h (2 Bft) N-NO 22 17,8 C 19,7 km/h (3 Bft)
24.07.2015 16:05 26,9 C 31,3 C 58 % 1006,5 hPa 0,0 mm 6,5 km/h (2 Bft) N-NO 22 17,9 C 10,4 km/h (2 Bft)
24.07.2015 16:10 26,9 C 31,1 C 57 % 1006,3 hPa 0,0 mm 9,3 km/h (2 Bft) NO 45 17,6 C 10,1 km/h (2 Bft)
24.07.2015 16:15 26,6 C 30,7 C 58 % 1006,3 hPa 0,0 mm 10,1 km/h (2 Bft) N 360 17,6 C 6,7 km/h (2 Bft)
24.07.2015 16:20 26,6 C 30,6 C 58 % 1006,3 hPa 0,0 mm 9,8 km/h (2 Bft) N-NO 22 17,6 C 11,1 km/h (2 Bft)
24.07.2015 16:25 26,6 C 30,8 C 58 % 1006,3 hPa 0,0 mm 10,1 km/h (2 Bft) N-NW 337 17,6 C 12,2 km/h (2 Bft)
24.07.2015 16:30 26,6 C 31,0 C 58 % 1006,0 hPa 0,0 mm 9,6 km/h (2 Bft) O-NO 67 17,6 C 17,9 km/h (3 Bft)
24.07.2015 16:35 26,6 C 31,2 C 58 % 1006,0 hPa 0,0 mm 8,3 km/h (2 Bft) NO 45 17,6 C 14,8 km/h (3 Bft)
24.07.2015 16:40 26,6 C 30,6 C 58 % 1006,0 hPa 0,0 mm 8,8 km/h (2 Bft) O-SO 112 17,6 C 4,7 km/h (1 Bft)
24.07.2015 16:45 26,5 C 30,3 C 58 % 1006,0 hPa 0,0 mm 8,0 km/h (2 Bft) NO 45 17,5 C 6,5 km/h (2 Bft)
24.07.2015 16:50 26,3 C 29,1 C 59 % 1005,8 hPa 0,0 mm 7,5 km/h (2 Bft) N-NO 22 17,6 C 5,7 km/h (1 Bft)
24.07.2015 16:55 26,2 C 28,4 C 60 % 1005,8 hPa 0,0 mm 6,2 km/h (2 Bft) S-SO 157 17,8 C 3,4 km/h (1 Bft)
24.07.2015 17:00 25,9 C 27,6 C 61 % 1005,8 hPa 0,0 mm 3,4 km/h (1 Bft) O-NO 67 17,8 C 0,0 km/h (0 Bft)
24.07.2015 17:05 25,8 C 27,3 C 63 % 1005,8 hPa 0,0 mm 2,8 km/h (1 Bft) O 90 18,2 C 4,9 km/h (1 Bft)
24.07.2015 17:10 25,8 C 27,0 C 62 % 1005,6 hPa 0,0 mm 1,8 km/h (1 Bft) NO 45 18,0 C 6,5 km/h (2 Bft)
24.07.2015 17:15 25,6 C 26,8 C 62 % 1005,6 hPa 0,0 mm 2,6 km/h (1 Bft) O-NO 67 17,8 C 9,1 km/h (2 Bft)
24.07.2015 17:20 25,5 C 26,5 C 63 % 1005,6 hPa 0,0 mm 2,8 km/h (1 Bft) NO 45 17,9 C 2,8 km/h (1 Bft)
24.07.2015 17:25 25,4 C 26,5 C 63 % 1005,6 hPa 0,0 mm 1,6 km/h (1 Bft) S-SW 202 17,8 C 0,0 km/h (0 Bft)
24.07.2015 17:30 25,4 C 26,4 C 63 % 1005,7 hPa 0,0 mm 0,8 km/h (0 Bft) O-SO 112 17,8 C 0,0 km/h (0 Bft)
24.07.2015 17:35 25,3 C 26,3 C 63 % 1005,7 hPa 0,0 mm 1,0 km/h (0 Bft) O-NO 67 17,7 C 2,6 km/h (1 Bft)
24.07.2015 17:40 25,2 C 26,2 C 63 % 1005,7 hPa 0,0 mm 0,8 km/h (0 Bft) NO 45 17,6 C 2,8 km/h (1 Bft)
24.07.2015 17:45 25,1 C 25,9 C 63 % 1005,7 hPa 0,0 mm 0,8 km/h (0 Bft) NO 45 17,5 C 0,0 km/h (0 Bft)
24.07.2015 17:50 24,9 C 25,9 C 63 % 1005,4 hPa 0,0 mm 0,8 km/h (0 Bft) SO 135 17,4 C 0,0 km/h (0 Bft)
24.07.2015 17:55 24,7 C 25,7 C 64 % 1005,4 hPa 0,0 mm 0,8 km/h (0 Bft) O-SO 112 17,4 C 3,6 km/h (1 Bft)
24.07.2015 18:00 24,6 C 25,6 C 64 % 1005,4 hPa 0,0 mm 0,8 km/h (0 Bft) O 90 17,3 C 0,0 km/h (0 Bft)
24.07.2015 18:05 24,5 C 25,5 C 64 % 1005,4 hPa 0,0 mm 0,5 km/h (0 Bft) O-SO 112 17,2 C 0,0 km/h (0 Bft)
24.07.2015 18:10 24,2 C 25,4 C 65 % 1005,2 hPa 0,0 mm 0,0 km/h (0 Bft) O-NO 67 17,2 C 0,0 km/h (0 Bft)
24.07.2015 18:15 24,1 C 25,1 C 65 % 1005,2 hPa 0,0 mm 0,0 km/h (0 Bft) N 360 17,1 C 0,0 km/h (0 Bft)
24.07.2015 18:20 24,0 C 25,0 C 66 % 1005,2 hPa 0,0 mm 0,5 km/h (0 Bft) SO 135 17,2 C 0,0 km/h (0 Bft)
24.07.2015 18:25 23,9 C 24,8 C 66 % 1005,2 hPa 0,0 mm 0,5 km/h (0 Bft) SO 135 17,1 C 0,0 km/h (0 Bft)
24.07.2015 18:30 23,8 C 24,7 C 67 % 1004,9 hPa 0,0 mm 0,3 km/h (0 Bft) SO 135 17,3 C 0,0 km/h (0 Bft)
24.07.2015 18:35 23,7 C 24,5 C 68 % 1004,9 hPa 0,0 mm 0,3 km/h (0 Bft) S 180 17,4 C 0,0 km/h (0 Bft)
24.07.2015 18:40 23,5 C 24,3 C 68 % 1004,9 hPa 0,0 mm 0,0 km/h (0 Bft) SO 135 17,2 C 3,4 km/h (1 Bft)
24.07.2015 18:45 23,5 C 24,2 C 69 % 1004,9 hPa 0,0 mm 0,0 km/h (0 Bft) O-SO 112 17,5 C 0,0 km/h (0 Bft)
24.07.2015 18:50 23,4 C 24,2 C 69 % 1005,0 hPa 0,0 mm 0,0 km/h (0 Bft) SO 135 17,4 C 0,0 km/h (0 Bft)
24.07.2015 18:55 23,4 C 24,2 C 69 % 1005,0 hPa 0,0 mm 0,0 km/h (0 Bft) SO 135 17,4 C 0,0 km/h (0 Bft)
24.07.2015 19:00 23,4 C 24,1 C 69 % 1005,0 hPa 0,0 mm 0,0 km/h (0 Bft) O-SO 112 17,4 C 0,0 km/h (0 Bft)
24.07.2015 19:05 23,3 C 24,0 C 70 % 1005,0 hPa 0,0 mm 0,0 km/h (0 Bft) O-SO 112 17,5 C 0,0 km/h (0 Bft)
24.07.2015 19:10 23,3 C 23,8 C 70 % 1004,8 hPa 0,0 mm 0,0 km/h (0 Bft) SO 135 17,5 C 0,0 km/h (0 Bft)
24.07.2015 19:15 23,2 C 23,8 C 70 % 1004,8 hPa 0,0 mm 0,0 km/h (0 Bft) SO 135 17,4 C 0,0 km/h (0 Bft)
24.07.2015 19:20 23,1 C 23,6 C 70 % 1004,8 hPa 0,0 mm 0,0 km/h (0 Bft) O-NO 67 17,3 C 0,0 km/h (0 Bft)
24.07.2015 19:25 23,0 C 23,5 C 70 % 1004,8 hPa 0,0 mm 0,5 km/h (0 Bft) O-NO 67 17,2 C 4,7 km/h (1 Bft)
24.07.2015 19:30 23,0 C 23,4 C 70 % 1004,6 hPa 0,0 mm 0,8 km/h (0 Bft) NO 45 17,2 C 0,0 km/h (0 Bft)
24.07.2015 19:35 23,0 C 23,3 C 70 % 1004,6 hPa 0,0 mm 0,8 km/h (0 Bft) O-SO 112 17,2 C 0,0 km/h (0 Bft)
24.07.2015 19:40 22,8 C 23,2 C 72 % 1004,6 hPa 0,0 mm 0,5 km/h (0 Bft) SO 135 17,5 C 0,0 km/h (0 Bft)
24.07.2015 19:45 22,8 C 23,1 C 73 % 1004,6 hPa 0,0 mm 0,0 km/h (0 Bft) O 90 17,7 C 0,0 km/h (0 Bft)
24.07.2015 19:50 22,8 C 22,9 C 73 % 1004,3 hPa 0,0 mm 0,0 km/h (0 Bft) N 360 17,7 C 0,0 km/h (0 Bft)
24.07.2015 19:55 22,6 C 22,8 C 73 % 1004,3 hPa 0,0 mm 0,3 km/h (0 Bft) SO 135 17,5 C 0,0 km/h (0 Bft)
24.07.2015 20:00 22,5 C 22,7 C 74 % 1004,3 hPa 0,0 mm 0,3 km/h (0 Bft) SO 135 17,6 C 0,0 km/h (0 Bft)
24.07.2015 20:05 22,4 C 22,6 C 74 % 1004,3 hPa 0,0 mm 0,3 km/h (0 Bft) S 180 17,5 C 0,0 km/h (0 Bft)
24.07.2015 20:10 22,3 C 22,5 C 74 % 1004,1 hPa 0,0 mm 0,3 km/h (0 Bft) S-SO 157 17,4 C 0,0 km/h (0 Bft)
24.07.2015 20:15 22,1 C 22,3 C 75 % 1004,1 hPa 0,0 mm 0,0 km/h (0 Bft) S-SO 157 17,5 C 0,0 km/h (0 Bft)
24.07.2015 20:20 21,8 C 22,0 C 75 % 1004,1 hPa 0,0 mm 0,0 km/h (0 Bft) S-SO 157 17,2 C 0,0 km/h (0 Bft)
24.07.2015 20:25 21,7 C 21,8 C 75 % 1004,1 hPa 0,0 mm 0,0 km/h (0 Bft) S-SO 157 17,1 C 0,0 km/h (0 Bft)
24.07.2015 20:30 21,8 C 21,8 C 76 % 1004,1 hPa 0,0 mm 0,0 km/h (0 Bft) S-SO 157 17,4 C 0,0 km/h (0 Bft)
24.07.2015 20:35 21,8 C 21,8 C 76 % 1004,1 hPa 0,0 mm 0,0 km/h (0 Bft) W 270 17,4 C 0,0 km/h (0 Bft)
24.07.2015 20:40 21,6 C 21,5 C 76 % 1004,1 hPa 0,0 mm 0,0 km/h (0 Bft) O-NO 67 17,2 C 0,0 km/h (0 Bft)
24.07.2015 20:45 21,3 C 21,3 C 76 % 1004,1 hPa 0,0 mm 0,0 km/h (0 Bft) SW 225 16,9 C 3,4 km/h (1 Bft)
24.07.2015 20:48 21,1 C 21,0 C 77 % 1004,1 hPa 0,0 mm 0,0 km/h (0 Bft) W 270 16,9 C 0,0 km/h (0 Bft)
24.07.2015 20:50 21,1 C 21,0 C 77 % 1004,1 hPa 0,0 mm 0,0 km/h (0 Bft) W 270 16,9 C 0,0 km/h (0 Bft)
24.07.2015 20:55 21,0 C 20,9 C 77 % 1004,1 hPa 0,0 mm 0,3 km/h (0 Bft) SW 225 16,8 C 2,8 km/h (1 Bft)
24.07.2015 21:00 20,9 C 20,8 C 77 % 1004,1 hPa 0,0 mm 0,3 km/h (0 Bft) O-SO 112 16,7 C 0,0 km/h (0 Bft)
24.07.2015 21:05 21,0 C 20,8 C 77 % 1004,1 hPa 0,0 mm 0,3 km/h (0 Bft) SO 135 16,8 C 0,0 km/h (0 Bft)
24.07.2015 21:10 20,8 C 20,7 C 78 % 1004,2 hPa 0,0 mm 0,5 km/h (0 Bft) SW 225 16,8 C 3,1 km/h (1 Bft)
24.07.2015 21:15 20,7 C 20,7 C 78 % 1004,2 hPa 0,0 mm 1,3 km/h (1 Bft) S 180 16,7 C 0,0 km/h (0 Bft)
24.07.2015 21:20 20,8 C 20,7 C 78 % 1004,2 hPa 0,0 mm 1,6 km/h (1 Bft) S-SO 157 16,8 C 0,0 km/h (0 Bft)
24.07.2015 21:25 20,8 C 20,7 C 78 % 1004,2 hPa 0,0 mm 1,0 km/h (0 Bft) SW 225 16,8 C 0,0 km/h (0 Bft)
24.07.2015 21:30 20,8 C 20,7 C 77 % 1004,4 hPa 0,0 mm 0,8 km/h (0 Bft) SW 225 16,6 C 3,4 km/h (1 Bft)
24.07.2015 21:35 20,7 C 20,6 C 77 % 1004,4 hPa 0,0 mm 1,0 km/h (0 Bft) S-SW 202 16,5 C 4,1 km/h (1 Bft)
24.07.2015 21:40 20,8 C 20,7 C 75 % 1004,4 hPa 0,0 mm 3,1 km/h (1 Bft) S 180 16,2 C 0,0 km/h (0 Bft)
24.07.2015 21:45 20,6 C 20,6 C 75 % 1004,4 hPa 0,0 mm 2,8 km/h (1 Bft) SO 135 16,0 C 0,0 km/h (0 Bft)
24.07.2015 21:50 20,4 C 20,4 C 74 % 1004,4 hPa 0,0 mm 0,8 km/h (0 Bft) SO 135 15,6 C 0,0 km/h (0 Bft)
24.07.2015 21:55 20,0 C 20,2 C 74 % 1004,4 hPa 0,0 mm 0,5 km/h (0 Bft) S 180 15,2 C 0,0 km/h (0 Bft)
24.07.2015 22:00 20,1 C 20,1 C 75 % 1004,4 hPa 0,0 mm 1,0 km/h (0 Bft) SO 135 15,5 C 0,0 km/h (0 Bft)
24.07.2015 22:05 20,1 C 20,0 C 75 % 1004,4 hPa 0,0 mm 1,0 km/h (0 Bft) SO 135 15,5 C 0,0 km/h (0 Bft)
24.07.2015 22:10 19,9 C 19,8 C 76 % 1004,2 hPa 0,0 mm 1,3 km/h (1 Bft) S-SW 202 15,5 C 5,4 km/h (1 Bft)
24.07.2015 22:15 19,9 C 19,8 C 77 % 1004,2 hPa 0,0 mm 2,3 km/h (1 Bft) SO 135 15,7 C 0,0 km/h (0 Bft)
24.07.2015 22:20 19,6 C 19,6 C 76 % 1004,2 hPa 0,0 mm 2,1 km/h (1 Bft) W 270 15,2 C 0,0 km/h (0 Bft)
24.07.2015 22:25 19,4 C 19,3 C 77 % 1004,2 hPa 0,0 mm 0,5 km/h (0 Bft) O-SO 112 15,3 C 0,0 km/h (0 Bft)
24.07.2015 22:30 19,3 C 19,2 C 77 % 1003,9 hPa 0,0 mm 0,0 km/h (0 Bft) SO 135 15,2 C 0,0 km/h (0 Bft)
24.07.2015 22:35 19,2 C 19,1 C 78 % 1003,9 hPa 0,0 mm 0,0 km/h (0 Bft) SO 135 15,3 C 0,0 km/h (0 Bft)
24.07.2015 22:40 19,0 C 18,9 C 78 % 1003,9 hPa 0,0 mm 0,0 km/h (0 Bft) SO 135 15,1 C 0,0 km/h (0 Bft)
24.07.2015 22:45 19,0 C 18,9 C 78 % 1003,9 hPa 0,0 mm 0,0 km/h (0 Bft) N-NO 22 15,1 C 0,0 km/h (0 Bft)
24.07.2015 22:50 19,0 C 18,8 C 79 % 1004,1 hPa 0,0 mm 0,0 km/h (0 Bft) N-NO 22 15,3 C 0,0 km/h (0 Bft)
24.07.2015 22:55 18,9 C 18,8 C 79 % 1004,1 hPa 0,0 mm 0,3 km/h (0 Bft) NW 315 15,2 C 0,0 km/h (0 Bft)
24.07.2015 23:00 19,1 C 18,9 C 80 % 1004,1 hPa 0,0 mm 1,0 km/h (0 Bft) SO 135 15,6 C 0,0 km/h (0 Bft)
24.07.2015 23:05 19,1 C 18,9 C 80 % 1004,1 hPa 0,0 mm 1,3 km/h (1 Bft) W 270 15,6 C 0,0 km/h (0 Bft)
24.07.2015 23:10 19,5 C 19,3 C 77 % 1004,8 hPa 0,0 mm 2,1 km/h (1 Bft) S 180 15,4 C 5,2 km/h (1 Bft)
24.07.2015 23:15 19,4 C 19,3 C 76 % 1004,8 hPa 0,0 mm 2,3 km/h (1 Bft) SW 225 15,1 C 0,0 km/h (0 Bft)
24.07.2015 23:20 19,5 C 19,4 C 74 % 1004,8 hPa 0,0 mm 2,8 km/h (1 Bft) SW 225 14,7 C 3,9 km/h (1 Bft)
24.07.2015 23:25 19,5 C 19,4 C 73 % 1004,8 hPa 0,0 mm 3,1 km/h (1 Bft) SW 225 14,5 C 0,0 km/h (0 Bft)
24.07.2015 23:30 19,3 C 19,3 C 72 % 1004,9 hPa 0,0 mm 1,8 km/h (1 Bft) S-SW 202 14,1 C 6,5 km/h (2 Bft)
24.07.2015 23:35 19,4 C 19,3 C 71 % 1004,9 hPa 0,0 mm 2,1 km/h (1 Bft) NO 45 14,0 C 2,8 km/h (1 Bft)
24.07.2015 23:40 19,5 C 19,4 C 70 % 1004,9 hPa 0,0 mm 4,1 km/h (1 Bft) NW 315 13,9 C 4,1 km/h (1 Bft)
24.07.2015 23:45 19,3 C 19,3 C 70 % 1004,9 hPa 0,0 mm 3,4 km/h (1 Bft) S 180 13,7 C 0,0 km/h (0 Bft)
24.07.2015 23:50 19,4 C 19,3 C 69 % 1005,3 hPa 0,0 mm 2,1 km/h (1 Bft) SW 225 13,6 C 3,1 km/h (1 Bft)
24.07.2015 23:55 19,5 C 19,4 C 69 % 1005,3 hPa 0,0 mm 3,4 km/h (1 Bft) SW 225 13,7 C 7,0 km/h (2 Bft)
_ Min-Zeit 06:15 06:15 16:10 22:45 - 22:50 - - 05:00 23:45
Minimum _ 14,1 C 14,0 C 57 % 1003,9 hPa - 0,0 km/h (0 Bft) - - 11,9 C 0,0 km/h (0 Bft)
_ Max-Zeit 16:10 12:10 06:45 01:05 23:55 14:45 - - 14:35 14:40
Maximum _ 26,9 C 31,6 C 88 % 1011,4 hPa 0,0 mm 11,9 km/h
N-NO (2 Bft)
- - 18,6 C 29,5 km/h
N-NO (5 Bft)
Durchschnitt _ 20,6 C 22,6 C 73 % 1007,7 hPa #0,0 mm 2,8 km/h (1 Bft) NO - 15,5 C 3,8 km/h (1 Bft)